User: anonymous   Login
Location: Terra Rouge Observatory
(46.0000°N, 62.7500°W)
Time: 15:10:22
(UTC-04:00)
Language:

Landsat 5 - Orbit

View from above orbital plane
View from above orbital plane
View from above satellite
View from above satellite

Ground track
Ground track

The orbit data is extracted from the following two-line orbital elements,

1 14780U 84021A   17057.48309694  .00000397  00000-0  42827-4 0  9994
2 14780  98.0300 167.3746 0091419 172.9893 187.2628 14.91404500759372
Epoch (UTC): 26 February 2017 11:35:39
Eccentricity: 0.0091419
inclination: 98.0300°
perigee height: 530 km
apogee height: 657 km
right ascension of ascending node: 167.3746°
argument of perigee: 172.9893°
revolutions per day: 14.91404500
mean anomaly at epoch: 187.2628°
orbit number at epoch: 75937

The dashed part of the orbit path shows where the satellite is in the earth's shadow,  

DLR